Regional Weather Roundup
Issued by NWS Sterling, VA

Home | Current Version | Previous Version | Text Only | Print | Product List | Glossary Off
Versions: 1 2 3 4 5 6 7 8 9 10 11 12 13 14 15 16 17 18 19 20 21 22 23 24 25 26 27 28 29 30 31 32 33 34 35 36 37 38 39 40 41 42 43 44 45 46 47 48 49 50

000
ASUS41 KLWX 251310
RWRLWX

REGIONAL WEATHER ROUNDUP
NATIONAL WEATHER SERVICE BALTIMORE MD/WASHINGTON DC
800 AM EST THU DEC 25 2014

Note: "FAIR" indicates few or no clouds below 12,000 feet
with no significant weather and/or obstructions to visibility.
 TC=TEMPERATURE CELSIUS

 * =Non NWS site. Station does not report precipitation (e.g. rain,
    snow, etc.), thunder, or fog.

DCZ001-MDZ009-015-VAZ040>042-051-053>054-251400-
WASHINGTON METRO

CITY           SKY/WX    TMP DP  RH WIND       PRES   REMARKS
WASHINGTON NAT CLOUDY    51  37  58 NW3       29.81R
DULLES         CLOUDY    45  35  68 SW3       29.81R
ANDREWS AFB    CLOUDY    48  38  69 NW13      29.80R
FT BELVOIR     CLOUDY    49  38  66 NW6       29.82R
QUANTICO       CLOUDY    50  39  66 N8        29.81R
COLLEGE PARK*  CLOUDY    50  34  53 W7        29.79R
LEESBURG*      CLOUDY    46  36  66 W12G18    29.82R
MANASSAS*      PTCLDY    45  39  81 CALM      29.82R
GAITHERSBURG*  MOCLDY    45  30  57 W18G24    29.83R

$$

MDZ006>007-011-014-251400-
BALTIMORE METRO

CITY           SKY/WX    TMP DP  RH WIND       PRES   REMARKS
BWI AIRPORT    CLOUDY    47  36  65 W12       29.78R
MD SCIENCE CTR   N/A     48  35  60 MISG      29.78R
MARTIN STATE   MOCLDY    50  39  66 W18G25    29.79R
ANNAPOLIS      CLOUDY    49  34  56 NW13G23   29.79R
FORT MEADE*    CLOUDY    45  36  70 W10G17    29.80R

$$

MDZ012-015-019>023-251400-
MARYLAND EASTERN SHORE

CITY           SKY/WX    TMP DP  RH WIND       PRES   REMARKS
OCEAN CITY     CLOUDY    53  50  89 NW13      29.75R
SALISBURY      CLOUDY    54  46  74 NW14G24   29.77R
BAY BRIDGE AP*   N/A     48  36  61 NW16G23   29.79R
CAMBRIDGE*     CLOUDY    52  43  71 NW8       29.78R
EASTON*        CLOUDY    50  41  71 NW16G24   29.82R

$$

MDZ017>025-251400-
SOUTHERN MARYLAND

CITY           SKY/WX    TMP DP  RH WIND       PRES   REMARKS
PATUXENT RIVER CLOUDY    49  43  80 NW10      29.79R
ST INIGOES     CLOUDY    51  43  74 VRB5      29.79R
LEONARDTOWN*   CLOUDY    48  43  81 NW5       29.80R

$$

MDZ003>005-251400-
NORTH CENTRAL MARYLAND

CITY           SKY/WX    TMP DP  RH WIND       PRES   REMARKS
FREDERICK*       N/A     46  32  57 CALM      29.83R
HAGERSTOWN APT PTCLDY    44  30  57 W22G30    29.77R
WESTMINSTER*   MOCLDY    45  36  70 W18G26    29.77R

$$

MDZ501>502-251400-
WESTERN MARYLAND

CITY           SKY/WX    TMP DP  RH WIND       PRES   REMARKS
OAKLAND*       CLOUDY    32 N/A N/A W17G29    29.77R WCI  21
CUMBERLAND*    CLOUDY    45  30  57 SW7       29.85S

$$

VAZ025>031-251400-
SHENANDOAH VALLEY

CITY           SKY/WX    TMP DP  RH WIND       PRES   REMARKS
WINCHESTER*    MOCLDY    46  27  46 W21G29    29.80R
FRONT ROYAL*   CLOUDY    45  32  61 W6        29.80R
LURAY*         CLOUDY    46  32  57 SW14G24   29.84R
NEW MARKET*    FAIR      45  28  50 W8G18     29.84R
STAUNTON*      MOCLDY    45  28  51 W5        29.87R
WAYNESBORO*    FAIR      42  29  59 W15G23    29.85R

$$

WVZ021-048>050-054>055-251400-
EASTERN WEST VIRGINIA PANHANDLE

CITY           SKY/WX    TMP DP  RH WIND       PRES   REMARKS
MARTINSBURG    PTCLDY    45  27  49 W16G23    29.81R
PETERSBURG*    PTCLDY    44  27  51 SW10      29.84R

$$

VAZ036>039-050-251400-
CENTRAL FOOTHILLS

CITY           SKY/WX    TMP DP  RH WIND       PRES   REMARKS
CHARLOTTESVILL MOCLDY    49  30  48 W5        29.84R
CULPEPER*      CLOUDY    45  39  81 CALM      29.82R
ORANGE*        CLOUDY    48  34  57 SW8       29.84R
GORDONSVILLE*  FAIR      49  32  53 SW7       29.82R
WARRENTON*     FAIR      47  40  75 W6        29.81R

$$

VAZ055>057-251400-
NORTH AND CENTRAL PIEDMONT

CITY           SKY/WX    TMP DP  RH WIND       PRES   REMARKS
FREDERICKSBRG* CLOUDY    52  42  69 NW8       29.81R
STAFFORD*      CLOUDY    48  37  67 W5        29.85R

$$

NCZ024-NYZ072-PAZ021-071-VAZ022-071-251400-
OTHER REGIONAL OBSERVATIONS

CITY           SKY/WX    TMP DP  RH WIND       PRES   REMARKS
NEW YORK CITY  CLOUDY    51  40  65 W12G18    29.67R
PHILADELPHIA   CLOUDY    50  40  68 W10       29.74R
PITTSBURGH     CLOUDY    39  33  79 SW12G21   29.83R
ROANOKE        PTCLDY    44  28  53 W16G24    29.94R
RICHMOND       CLOUDY    54  39  57 W17       29.83R
RALEIGH        CLOUDY    52  40  63 W5        29.95R

$$

ANZ530>537-251400-
MARINE OBSERVATIONS

STATION/POSITION TIME  TEMP    WIND        PRES
                       AIR SEA DIR/SP/G
                 (UTC) (F)     (DEG/KT/KT) (MB)
THOMAS PT LIGHT  1300   50 42  310/ 22/ 25 1009.5R
BALT KEY BRIDGE  1300   49     270/ 13/ 15 1008.2R
COVE POINT       1300   48     340/ 14/ 16 1008.2R
LEWISETTA        1300   51 44  340/  9/ 11 1008.5S
SOLOMONS ISLAND  1300      44                N/A
PINEY POINT      1300          340/ 11/ 11   N/A

$$




USA.gov is the U.S. government's official web portal to all federal, state and local government web resources and services.